Showing default

S-NET A, 43188

Orbit data source: Space-Track

S-NET A, 43188 is a payload satellite owned by TUB (DE) in SSO that was launched on Thu, 01 Feb 2018 UTC via a SOYUZ-2-1A launch vehicle from the Vostochny Cosmodrome (VOSTO). Payload-class satellites include a variety of spacecraft equipped with specific instruments for various scientific and technological missions. These include communications satellites like Starlink; space stations such as the ISS; scientific satellites like the Hubble; Earth observation satellites from companies like Planet Labs, Umbra, and HawkEye 360; GPS; miniature CubeSats for education and research; and military/defense satellites.

Loading next visibility...
Identifier
43188, 2018-014J
Orbit
SSO
Country
Flag of DEDE / GER
Related business
Manufacturer
TUB
Mission
Operational Amateur Com/Tech
Bus & Motor
TUBIX10, Unknown motor
Mass
8 kg wet, 8 kg dry
Launch date (UTC)
2018-02-01 (8 years ago)
Launch vehicle
SOYUZ-2-1A
Launch site
Vostochny Cosmodrome (VOSTO)
Object type
Payload
Rocket body
Debris
Shape & HBR
Box, 1.0 m
Radar Cross Section
0.086 m², Medium (>0.1 m² and < 1m²)

Expand to show TLE details & history
Last TLE update: 12 hours ago

TLE from 12 hours ago
0 S-NET A
1 43188U 18014J   26150.77839809  .00006178  00000-0  32016-3 0  9990
2 43188  97.5399  55.8707 0010606  77.9708 282.2713 15.16495562456128
Epoch: 2026-05-30T18:40Z
TLE epoch observation values (Epoch: 2026-05-30T18:40:53.594Z)
Latitude
-0.00005°
Longitude
-112.64215°
Altitude
517.977 km
Speed
7.605 km/s
True Right ascension
03h 43m 28s
True Declination
0° 00' 00"
Sunlit
Object was in daylight at epoch
Visualization orbit readout
Latitude
Unknown
Longitude
Unknown
Altitude
Unknown
Speed
Unknown
Apparent Right ascension
Unknown
Apparent Declination
Unknown
Sunlit
N/A
Visualization observer readout
Local Sidereal Time
16:09:44
Azimuth
Unknown
Elevation
Unknown
Doppler factor
Unknown
Orbital elements
Apogee altitude
520.727 km
Perigee altitude
506.109 km
Semi-major axis
6,891.555 km
Eccentricity
0.00106
Inclination
97.5399°
RAAN
55.8707°
Arg. of periapsis
77.9708°
True anomaly
282.15251°
Mean anomaly
282.2713°
Eccentric anomaly
282.21191°
Mean motion
3.79374 °/min
Orbital period
94.89 mins
BSTAR
0.00032016
Loading maneuver chart data...
Computing Atmospheric mass density...
Loading historical data...
Loading historical data...
Loading historical data...
Loading historical data...
Loading historical data...
Loading historical data...
Loading historical data...

Documentation

Showing up to 5 results
|